Torna al catalogo

COSMOS 508

AttivoNavigazioneLEO
NORAD 6121·PAYLOAD·🇷🇺 Russia

Lanciato Jul 20, 1972 da Plesetsk Cosmodrome

Loading…

Prossimi Passaggi (prossime 24 ore)

TLE

AggiornatoSource: Space-Track

Epoca: Sep 14, 2026, 06:48 UTC

1 06121U 72057E   26257.28384110 -.00000021  00000-0 -35536-4 0  9991
2 06121  74.0242 273.1382 0034528 321.0290  50.9193 12.48903476468825

Traccia COSMOS 508 in tempo reale con AllMySat

Download on the App Store